User: anonymous   Login
Location: Unspecified
(0.0000°N, 0.0000°E)
Time: 15:39:00
(UTC+00:00)
Language:

ITAMSAT 1 - Orbit

View from above orbital plane
View from above orbital plane
View from above satellite
View from above satellite

Ground track
Ground track

The orbit data is extracted from the following two-line orbital elements,

1 22826U 93061D   21267.60386612  .00000004  00000-0  19410-4 0  9992
2 22826  98.9091 287.5377 0010073  93.2698 266.9637 14.30465387460409
Epoch (UTC): 24 September 2021 14:29:34
Eccentricity: 0.0010073
inclination: 98.9091°
perigee height: 783 km
apogee height: 797 km
right ascension of ascending node: 287.5377°
argument of perigee: 93.2698°
revolutions per day: 14.30465387
mean anomaly at epoch: 266.9637°
orbit number at epoch: 46040

The dashed part of the orbit path shows where the satellite is in the earth's shadow,  

DLR